QPF
0.00 0.00 0.00 0.01 0.01 0.02 0.01 0.01 0.01 0.01 0.02 0.02 0.01 0.01 0.01 0.00 0.01 0.01 0.00 0.00 0.00 0.00 0.00 0.01 0.02 0.01 0.01 0.01 0.01 0.01 0.01 0.00 0.00 0.00 0.00 0.00 0.01 0.01 0.01 0.01 0.01 0.01 0.01 0.01 0.02 0.02 0.02 0.03 0.03
0.00 0.00 0.00 0.00 0.01 0.01 0.01 0.01 0.02 0.02 0.02 0.02 0.02 0.01 0.00 0.00 0.00 0.00 0.00 0.00 0.00 0.00 0.00 0.01 0.01 0.01 0.01 0.00 0.00 0.00 0.00 0.00 0.00 0.00 0.00 0.01 0.01 0.01 0.01 0.01 0.02 0.01 0.01 0.01 0.01 0.01 0.01 0.02 0.02
0.00 0.00 0.00 0.01 0.01 0.01 0.01 0.01 0.01 0.03 0.04 0.04 0.03 0.01 0.00 0.00 0.00 0.00 0.00 0.00 0.00 0.00 0.00 0.01 0.01 0.01 0.00 0.00 0.00 0.00 0.00 0.00 0.00 0.00 0.00 0.01 0.01 0.01 0.01 0.02 0.02 0.01 0.01 0.00 0.01 0.01 0.01 0.01 0.01
0.00 0.00 0.00 0.00 0.00 0.00 0.01 0.00 0.01 0.03 0.04 0.03 0.03 0.01 0.01 0.00 0.00 0.00 0.00 0.00 0.00 0.00 0.00 0.01 0.01 0.01 0.00 0.00 0.00 0.00 0.00 0.00 0.01 0.00 0.00 0.01 0.01 0.01 0.01 0.01 0.01 0.01 0.01 0.01 0.01 0.01 0.01 0.01 0.02
0.00 0.00 0.00 0.00 0.00 0.01 0.01 0.01 0.01 0.02 0.03 0.03 0.02 0.01 0.01 0.00 0.00 0.00 0.00 0.00 0.00 0.00 0.01 0.01 0.01 0.00 0.00 0.00 0.00 0.00 0.01 0.01 0.01 0.00 0.01 0.01 0.01 0.01 0.00 0.00 0.01 0.01 0.00 0.01 0.01 0.01 0.01 0.01 0.02
0.00 0.00 0.00 0.00 0.00 0.00 0.00 0.01 0.01 0.02 0.02 0.03 0.03 0.01 0.01 0.01 0.01 0.01 0.00 0.00 0.01 0.01 0.01 0.01 0.01 0.01 0.00 0.00 0.00 0.00 0.01 0.01 0.01 0.00 0.01 0.01 0.01 0.01 0.00 0.00 0.00 0.00 0.00 0.00 0.01 0.01 0.01 0.02 0.02
0.00 0.00 0.00 0.00 0.00 0.00 0.01 0.01 0.01 0.02 0.03 0.04 0.02 0.01 0.01 0.02 0.02 0.01 0.00 0.01 0.01 0.01 0.01 0.01 0.01 0.00 0.01 0.01 0.00 0.01 0.01 0.01 0.00 0.00 0.01 0.01 0.01 0.01 0.00 0.01 0.01 0.00 0.00 0.00 0.01 0.01 0.02 0.02 0.02
0.00 0.00 0.00 0.00 0.00 0.00 0.01 0.01 0.01 0.01 0.02 0.03 0.01 0.01 0.01 0.01 0.02 0.01 0.02 0.02 0.01 0.02 0.02 0.01 0.01 0.00 0.00 0.01 0.01 0.01 0.01 0.01 0.01 0.01 0.01 0.01 0.01 0.01 0.01 0.01 0.01 0.00 0.00 0.01 0.02 0.02 0.02 0.01 0.02
0.00 0.00 0.00 0.00 0.00 0.00 0.00 0.01 0.01 0.01 0.02 0.02 0.01 0.00 0.00 0.01 0.01 0.02 0.03 0.03 0.02 0.02 0.02 0.02 0.01 0.00 0.00 0.00 0.01 0.01 0.01 0.01 0.01 0.01 0.02 0.01 0.00 0.00 0.00 0.01 0.01 0.01 0.01 0.01 0.02 0.02 0.02 0.02 0.02
0.00 0.00 0.00 0.00 0.00 0.00 0.00 0.01 0.01 0.02 0.03 0.01 0.01 0.01 0.01 0.01 0.01 0.01 0.01 0.01 0.01 0.01 0.01 0.03 0.01 0.00 0.00 0.00 0.01 0.01 0.01 0.00 0.00 0.00 0.01 0.00 0.00 0.00 0.00 0.01 0.02 0.02 0.02 0.02 0.01 0.02 0.01 0.01 0.01
0.00 0.00 0.00 0.00 0.00 0.00 0.00 0.01 0.01 0.00 0.01 0.00 0.00 0.00 0.00 0.01 0.01 0.02 0.01 0.00 0.01 0.01 0.01 0.01 0.02 0.01 0.01 0.00 0.00 0.00 0.00 0.00 0.00 0.00 0.00 0.00 0.00 0.00 0.00 0.01 0.02 0.01 0.02 0.01 0.01 0.01 0.01 0.01 0.01
0.00 0.00 0.00 0.00 0.00 0.00 0.00 0.00 0.00 0.00 0.00 0.00 0.00 0.00 0.00 0.00 0.01 0.02 0.02 0.02 0.02 0.02 0.02 0.01 0.02 0.01 0.01 0.01 0.00 0.00 0.00 0.00 0.00 0.00 0.00 0.00 0.00 0.01 0.00 0.00 0.00 0.00 0.01 0.01 0.01 0.01 0.01 0.01 0.01
0.00 0.00 0.00 0.00 0.00 0.00 0.00 0.00 0.00 0.00 0.00 0.00 0.00 0.00 0.00 0.01 0.01 0.03 0.03 0.04 0.04 0.03 0.03 0.03 0.03 0.02 0.02 0.02 0.01 0.00 0.00 0.00 0.00 0.00 0.01 0.00 0.00 0.01 0.00 0.00 0.00 0.00 0.01 0.01 0.01 0.02 0.02 0.02 0.02
0.00 0.00 0.00 0.00 0.00 0.00 0.00 0.00 0.00 0.00 0.00 0.00 0.00 0.00 0.01 0.01 0.03 0.04 0.05 0.04 0.05 0.06 0.03 0.03 0.04 0.04 0.05 0.04 0.03 0.01 0.01 0.00 0.00 0.00 0.00 0.00 0.01 0.01 0.00 0.00 0.00 0.01 0.01 0.01 0.01 0.02 0.02 0.02 0.02
0.00 0.00 0.00 0.00 0.00 0.00 0.00 0.00 0.00 0.00 0.00 0.01 0.01 0.01 0.01 0.03 0.04 0.04 0.08 0.06 0.05 0.05 0.05 0.05 0.06 0.05 0.05 0.05 0.05 0.03 0.02 0.01 0.00 0.01 0.01 0.01 0.01 0.01 0.00 0.01 0.01 0.01 0.01 0.01 0.01 0.02 0.02 0.01 0.02
0.00 0.00 0.00 0.00 0.00 0.00 0.00 0.00 0.00 0.00 0.00 0.01 0.01 0.01 0.02 0.03 0.04 0.05 0.07 0.07 0.07 0.08 0.06 0.07 0.07 0.07 0.06 0.05 0.05 0.04 0.03 0.02 0.01 0.01 0.01 0.02 0.01 0.01 0.01 0.01 0.01 0.01 0.01 0.01 0.01 0.01 0.02 0.02 0.02
0.00 0.00 0.00 0.00 0.00 0.00 0.00 0.00 0.00 0.00 0.00 0.00 0.00 0.01 0.01 0.02 0.04 0.07 0.07 0.07 0.07 0.10 0.08 0.08 0.08 0.09 0.10 0.11 0.10 0.07 0.06 0.05 0.03 0.02 0.02 0.03 0.02 0.02 0.01 0.01 0.02 0.02 0.01 0.01 0.01 0.01 0.01 0.02 0.02
0.00 0.00 0.00 0.00 0.00 0.00 0.00 0.00 0.00 0.00 0.00 0.01 0.01 0.01 0.01 0.02 0.04 0.06 0.08 0.09 0.07 0.09 0.09 0.07 0.08 0.09 0.11 0.13 0.15 0.13 0.11 0.10 0.07 0.06 0.05 0.04 0.04 0.03 0.02 0.01 0.02 0.01 0.02 0.02 0.02 0.01 0.01 0.02 0.02
0.00 0.00 0.00 0.00 0.00 0.00 0.00 0.00 0.00 0.00 0.01 0.01 0.01 0.01 0.01 0.03 0.05 0.06 0.07 0.07 0.07 0.09 0.08 0.07 0.07 0.09 0.09 0.11 0.13 0.14 0.12 0.09 0.09 0.10 0.09 0.07 0.05 0.03 0.02 0.02 0.01 0.01 0.02 0.03 0.03 0.02 0.02 0.02 0.01
0.00 0.00 0.00 0.00 0.00 0.00 0.00 0.00 0.00 0.00 0.01 0.01 0.01 0.01 0.01 0.02 0.03 0.06 0.08 0.07 0.06 0.08 0.10 0.10 0.10 0.11 0.10 0.11 0.14 0.18 0.18 0.16 0.14 0.13 0.10 0.08 0.05 0.03 0.02 0.02 0.02 0.01 0.02 0.03 0.03 0.02 0.02 0.01 0.01
0.00 0.00 0.00 0.00 0.00 0.00 0.00 0.01 0.01 0.01 0.01 0.01 0.01 0.01 0.02 0.02 0.02 0.06 0.09 0.08 0.08 0.12 0.11 0.12 0.13 0.15 0.15 0.16 0.20 0.25 0.26 0.21 0.17 0.13 0.10 0.07 0.05 0.04 0.03 0.03 0.03 0.03 0.02 0.02 0.01 0.01 0.01 0.00 0.00
0.00 0.00 0.00 0.00 0.00 0.01 0.00 0.00 0.01 0.01 0.01 0.01 0.01 0.01 0.02 0.02 0.02 0.05 0.07 0.06 0.07 0.12 0.13 0.12 0.15 0.17 0.19 0.18 0.16 0.15 0.15 0.11 0.09 0.11 0.10 0.08 0.05 0.03 0.03 0.03 0.02 0.03 0.03 0.02 0.02 0.01 0.00 0.00 0.00
0.00 0.00 0.00 0.01 0.01 0.01 0.00 0.00 0.00 0.01 0.01 0.01 0.02 0.02 0.02 0.04 0.04 0.05 0.06 0.05 0.06 0.10 0.13 0.12 0.14 0.17 0.21 0.19 0.15 0.12 0.11 0.08 0.08 0.10 0.10 0.07 0.05 0.04 0.04 0.03 0.02 0.02 0.03 0.03 0.02 0.01 0.01 0.00 0.00
0.00 0.00 0.00 0.01 0.01 0.00 0.00 0.00 0.00 0.00 0.00 0.00 0.01 0.02 0.02 0.04 0.03 0.03 0.04 0.06 0.07 0.10 0.10 0.10 0.13 0.16 0.20 0.17 0.15 0.10 0.08 0.06 0.05 0.05 0.06 0.06 0.06 0.06 0.04 0.03 0.02 0.01 0.02 0.03 0.01 0.01 0.01 0.00 0.00
0.00 0.00 0.01 0.01 0.00 0.00 0.00 0.00 0.00 0.00 0.00 0.00 0.01 0.01 0.01 0.02 0.02 0.02 0.03 0.05 0.07 0.08 0.08 0.08 0.09 0.11 0.14 0.15 0.13 0.09 0.07 0.05 0.03 0.03 0.04 0.04 0.04 0.03 0.03 0.02 0.01 0.01 0.02 0.02 0.01 0.01 0.01 0.00 0.00
0.00 0.00 0.00 0.00 0.00 0.00 0.00 0.00 0.00 0.00 0.00 0.00 0.01 0.01 0.02 0.02 0.02 0.02 0.04 0.06 0.06 0.05 0.06 0.06 0.07 0.07 0.10 0.11 0.10 0.08 0.07 0.06 0.04 0.04 0.03 0.03 0.02 0.02 0.02 0.02 0.01 0.01 0.01 0.01 0.01 0.01 0.00 0.00 0.00
0.00 0.00 0.00 0.00 0.00 0.00 0.00 0.00 0.00 0.00 0.00 0.00 0.01 0.01 0.01 0.01 0.02 0.02 0.05 0.05 0.05 0.04 0.04 0.04 0.06 0.06 0.07 0.10 0.11 0.10 0.07 0.06 0.05 0.04 0.03 0.02 0.02 0.03 0.03 0.02 0.02 0.01 0.01 0.01 0.01 0.00 0.00 0.00 0.00
0.00 0.00 0.00 0.00 0.00 0.00 0.00 0.00 0.00 0.00 0.00 0.00 0.00 0.01 0.01 0.02 0.02 0.03 0.04 0.03 0.03 0.03 0.04 0.04 0.05 0.06 0.06 0.08 0.08 0.09 0.08 0.07 0.07 0.05 0.04 0.02 0.02 0.03 0.03 0.03 0.03 0.02 0.02 0.01 0.01 0.01 0.01 0.01 0.00
0.00 0.00 0.00 0.00 0.00 0.00 0.00 0.00 0.00 0.00 0.00 0.01 0.01 0.01 0.01 0.02 0.02 0.02 0.02 0.02 0.02 0.02 0.03 0.03 0.04 0.06 0.07 0.06 0.06 0.06 0.07 0.08 0.08 0.06 0.05 0.05 0.03 0.03 0.03 0.03 0.04 0.03 0.02 0.01 0.02 0.02 0.01 0.01 0.01
0.00 0.00 0.00 0.00 0.00 0.00 0.00 0.00 0.00 0.01 0.01 0.02 0.02 0.02 0.02 0.02 0.02 0.03 0.03 0.01 0.02 0.02 0.02 0.03 0.04 0.05 0.06 0.07 0.06 0.06 0.08 0.09 0.08 0.06 0.06 0.07 0.07 0.06 0.07 0.05 0.05 0.05 0.04 0.03 0.02 0.03 0.02 0.02 0.01
MSLP
1006.62 1007.64 1008.75 1009.76 1010.48 1010.83 1010.80 1010.45 1009.92 1009.39 1009.01 1008.86 1008.98 1009.30 1009.73 1010.14 1010.42 1010.51 1010.42 1010.19 1009.92 1009.70 1009.62 1009.71 1009.96 1010.33 1010.73 1011.10 1011.39 1011.58 1011.68 1011.74 1011.81 1011.93 1012.12 1012.37 1012.67 1012.97 1013.24 1013.44 1013.58 1013.65 1013.69 1013.71 1013.75 1013.81 1013.91 1014.04 1014.19
1007.06 1008.23 1009.39 1010.35 1010.93 1011.06 1010.76 1010.14 1009.37 1008.64 1008.12 1007.90 1007.99 1008.34 1008.82 1009.29 1009.65 1009.83 1009.82 1009.69 1009.51 1009.40 1009.41 1009.59 1009.92 1010.35 1010.80 1011.21 1011.52 1011.74 1011.87 1011.96 1012.07 1012.22 1012.43 1012.70 1013.00 1013.28 1013.52 1013.69 1013.79 1013.84 1013.86 1013.88 1013.92 1014.00 1014.11 1014.25 1014.40
1007.62 1008.87 1010.03 1010.87 1011.27 1011.18 1010.64 1009.80 1008.84 1007.98 1007.39 1007.14 1007.25 1007.63 1008.16 1008.69 1009.11 1009.36 1009.43 1009.38 1009.31 1009.29 1009.40 1009.67 1010.07 1010.54 1011.01 1011.43 1011.75 1011.96 1012.10 1012.21 1012.33 1012.50 1012.72 1012.99 1013.28 1013.54 1013.75 1013.89 1013.96 1014.00 1014.01 1014.04 1014.11 1014.21 1014.34 1014.49 1014.65
1008.25 1009.52 1010.60 1011.30 1011.51 1011.21 1010.49 1009.49 1008.44 1007.53 1006.93 1006.71 1006.86 1007.28 1007.84 1008.41 1008.87 1009.17 1009.30 1009.33 1009.34 1009.42 1009.62 1009.95 1010.39 1010.88 1011.35 1011.75 1012.04 1012.23 1012.35 1012.45 1012.57 1012.74 1012.97 1013.24 1013.51 1013.75 1013.94 1014.07 1014.13 1014.17 1014.20 1014.25 1014.34 1014.47 1014.63 1014.80 1014.97
1008.89 1010.11 1011.06 1011.59 1011.62 1011.16 1010.31 1009.25 1008.19 1007.32 1006.78 1006.63 1006.83 1007.30 1007.89 1008.46 1008.93 1009.24 1009.42 1009.51 1009.59 1009.75 1010.02 1010.41 1010.87 1011.35 1011.79 1012.14 1012.37 1012.51 1012.59 1012.66 1012.77 1012.93 1013.16 1013.43 1013.70 1013.95 1014.13 1014.26 1014.33 1014.39 1014.44 1014.53 1014.65 1014.81 1014.98 1015.17 1015.34
1009.45 1010.55 1011.34 1011.70 1011.57 1011.00 1010.10 1009.06 1008.07 1007.31 1006.90 1006.85 1007.12 1007.62 1008.20 1008.76 1009.21 1009.51 1009.70 1009.83 1009.98 1010.20 1010.53 1010.95 1011.42 1011.87 1012.26 1012.53 1012.70 1012.77 1012.79 1012.83 1012.92 1013.09 1013.32 1013.60 1013.89 1014.14 1014.35 1014.49 1014.59 1014.67 1014.75 1014.86 1015.01 1015.19 1015.38 1015.57 1015.74
1009.85 1010.80 1011.40 1011.58 1011.32 1010.69 1009.81 1008.86 1008.02 1007.42 1007.16 1007.23 1007.57 1008.08 1008.64 1009.16 1009.56 1009.84 1010.02 1010.18 1010.38 1010.65 1011.03 1011.47 1011.93 1012.36 1012.68 1012.89 1012.98 1012.98 1012.96 1012.97 1013.06 1013.23 1013.48 1013.78 1014.09 1014.37 1014.60 1014.76 1014.89 1014.99 1015.10 1015.23 1015.39 1015.58 1015.77 1015.95 1016.12
1010.05 1010.81 1011.22 1011.23 1010.87 1010.22 1009.41 1008.60 1007.93 1007.52 1007.42 1007.60 1008.00 1008.51 1009.03 1009.49 1009.83 1010.07 1010.25 1010.43 1010.67 1011.00 1011.42 1011.89 1012.35 1012.75 1013.03 1013.18 1013.21 1013.18 1013.13 1013.14 1013.22 1013.41 1013.69 1014.01 1014.34 1014.64 1014.89 1015.07 1015.21 1015.33 1015.45 1015.59 1015.76 1015.93 1016.12 1016.29 1016.45
1010.02 1010.58 1010.80 1010.67 1010.24 1009.60 1008.88 1008.22 1007.73 1007.51 1007.55 1007.83 1008.26 1008.76 1009.23 1009.62 1009.91 1010.12 1010.30 1010.51 1010.80 1011.18 1011.65 1012.15 1012.62 1013.01 1013.27 1013.40 1013.42 1013.38 1013.33 1013.35 1013.46 1013.67 1013.97 1014.31 1014.65 1014.96 1015.21 1015.40 1015.54 1015.66 1015.77 1015.91 1016.06 1016.23 1016.41 1016.57 1016.72
1009.80 1010.17 1010.22 1009.96 1009.48 1008.86 1008.24 1007.72 1007.39 1007.32 1007.48 1007.82 1008.27 1008.74 1009.17 1009.50 1009.75 1009.95 1010.14 1010.40 1010.74 1011.18 1011.70 1012.24 1012.75 1013.15 1013.43 1013.57 1013.61 1013.59 1013.58 1013.63 1013.78 1014.01 1014.33 1014.67 1015.01 1015.31 1015.54 1015.71 1015.84 1015.94 1016.04 1016.16 1016.31 1016.47 1016.64 1016.81 1016.96
1009.47 1009.67 1009.57 1009.21 1008.68 1008.09 1007.55 1007.14 1006.94 1006.98 1007.21 1007.59 1008.04 1008.48 1008.86 1009.17 1009.40 1009.60 1009.83 1010.13 1010.54 1011.04 1011.61 1012.20 1012.75 1013.19 1013.51 1013.70 1013.79 1013.84 1013.89 1013.99 1014.17 1014.43 1014.74 1015.08 1015.39 1015.66 1015.86 1015.99 1016.09 1016.17 1016.26 1016.37 1016.51 1016.68 1016.85 1017.03 1017.19
1009.12 1009.18 1008.95 1008.52 1007.97 1007.40 1006.91 1006.58 1006.46 1006.55 1006.82 1007.21 1007.64 1008.05 1008.41 1008.71 1008.95 1009.18 1009.45 1009.81 1010.27 1010.82 1011.44 1012.07 1012.65 1013.15 1013.52 1013.79 1013.96 1014.08 1014.21 1014.37 1014.58 1014.85 1015.16 1015.47 1015.74 1015.97 1016.13 1016.23 1016.30 1016.36 1016.44 1016.55 1016.70 1016.88 1017.08 1017.28 1017.47
1008.84 1008.79 1008.48 1008.00 1007.43 1006.87 1006.42 1006.14 1006.05 1006.16 1006.43 1006.80 1007.20 1007.60 1007.96 1008.26 1008.53 1008.80 1009.12 1009.52 1010.01 1010.59 1011.23 1011.88 1012.49 1013.03 1013.48 1013.82 1014.08 1014.30 1014.50 1014.71 1014.96 1015.23 1015.52 1015.79 1016.02 1016.20 1016.33 1016.40 1016.46 1016.52 1016.61 1016.73 1016.91 1017.11 1017.34 1017.58 1017.80
1008.72 1008.59 1008.22 1007.71 1007.14 1006.60 1006.17 1005.91 1005.82 1005.91 1006.15 1006.49 1006.87 1007.26 1007.62 1007.95 1008.26 1008.57 1008.92 1009.34 1009.83 1010.40 1011.02 1011.66 1012.28 1012.85 1013.35 1013.77 1014.12 1014.42 1014.69 1014.96 1015.23 1015.50 1015.76 1015.99 1016.19 1016.34 1016.45 1016.52 1016.59 1016.67 1016.79 1016.95 1017.15 1017.39 1017.66 1017.93 1018.18
1008.75 1008.57 1008.18 1007.67 1007.12 1006.61 1006.20 1005.93 1005.82 1005.88 1006.08 1006.38 1006.73 1007.11 1007.49 1007.84 1008.18 1008.52 1008.88 1009.28 1009.74 1010.25 1010.82 1011.41 1012.01 1012.59 1013.13 1013.62 1014.05 1014.43 1014.77 1015.08 1015.36 1015.62 1015.86 1016.06 1016.24 1016.38 1016.50 1016.60 1016.71 1016.83 1016.99 1017.19 1017.43 1017.71 1018.00 1018.30 1018.58
1008.91 1008.70 1008.32 1007.84 1007.33 1006.86 1006.47 1006.20 1006.06 1006.08 1006.22 1006.47 1006.80 1007.17 1007.55 1007.93 1008.29 1008.63 1008.97 1009.32 1009.70 1010.13 1010.60 1011.12 1011.68 1012.25 1012.82 1013.37 1013.87 1014.33 1014.73 1015.07 1015.36 1015.61 1015.83 1016.02 1016.19 1016.35 1016.50 1016.65 1016.82 1017.00 1017.21 1017.46 1017.73 1018.03 1018.34 1018.65 1018.94
1009.12 1008.91 1008.56 1008.15 1007.71 1007.29 1006.93 1006.66 1006.50 1006.45 1006.53 1006.73 1007.01 1007.36 1007.74 1008.12 1008.48 1008.81 1009.10 1009.38 1009.66 1009.97 1010.33 1010.76 1011.27 1011.83 1012.43 1013.03 1013.61 1014.13 1014.59 1014.97 1015.27 1015.52 1015.72 1015.91 1016.09 1016.28 1016.48 1016.70 1016.93 1017.18 1017.44 1017.72 1018.01 1018.31 1018.62 1018.93 1019.22
1009.29 1009.11 1008.84 1008.52 1008.18 1007.84 1007.52 1007.24 1007.04 1006.93 1006.93 1007.05 1007.27 1007.58 1007.94 1008.30 1008.65 1008.93 1009.17 1009.35 1009.52 1009.71 1009.97 1010.32 1010.78 1011.34 1011.97 1012.64 1013.29 1013.89 1014.41 1014.83 1015.15 1015.39 1015.60 1015.78 1015.98 1016.20 1016.46 1016.74 1017.05 1017.36 1017.66 1017.96 1018.24 1018.53 1018.81 1019.09 1019.37
1009.35 1009.24 1009.08 1008.89 1008.67 1008.42 1008.15 1007.87 1007.61 1007.41 1007.31 1007.32 1007.46 1007.70 1008.02 1008.35 1008.66 1008.90 1009.07 1009.17 1009.24 1009.33 1009.49 1009.78 1010.21 1010.79 1011.48 1012.22 1012.97 1013.65 1014.24 1014.70 1015.05 1015.30 1015.50 1015.69 1015.91 1016.17 1016.47 1016.81 1017.17 1017.52 1017.85 1018.15 1018.41 1018.66 1018.90 1019.15 1019.40
1009.28 1009.28 1009.27 1009.24 1009.16 1009.01 1008.77 1008.48 1008.14 1007.83 1007.59 1007.47 1007.49 1007.64 1007.88 1008.17 1008.43 1008.63 1008.74 1008.78 1008.77 1008.79 1008.90 1009.15 1009.59 1010.20 1010.96 1011.80 1012.65 1013.43 1014.10 1014.62 1014.99 1015.26 1015.46 1015.66 1015.89 1016.17 1016.50 1016.89 1017.28 1017.66 1018.00 1018.28 1018.52 1018.72 1018.91 1019.12 1019.34
1009.07 1009.23 1009.41 1009.56 1009.63 1009.58 1009.38 1009.04 1008.60 1008.14 1007.73 1007.44 1007.31 1007.34 1007.50 1007.72 1007.95 1008.11 1008.19 1008.19 1008.14 1008.12 1008.21 1008.46 1008.92 1009.60 1010.44 1011.38 1012.34 1013.22 1013.98 1014.56 1014.97 1015.26 1015.48 1015.67 1015.91 1016.20 1016.56 1016.96 1017.38 1017.77 1018.11 1018.37 1018.58 1018.73 1018.88 1019.04 1019.23
1008.79 1009.14 1009.54 1009.89 1010.12 1010.16 1009.96 1009.55 1008.98 1008.33 1007.72 1007.24 1006.93 1006.83 1006.88 1007.05 1007.24 1007.40 1007.47 1007.46 1007.41 1007.39 1007.47 1007.74 1008.24 1008.98 1009.90 1010.94 1012.00 1012.99 1013.83 1014.48 1014.95 1015.26 1015.49 1015.70 1015.93 1016.23 1016.60 1017.02 1017.45 1017.84 1018.18 1018.43 1018.60 1018.73 1018.83 1018.96 1019.13
1008.49 1009.07 1009.70 1010.26 1010.63 1010.74 1010.53 1010.02 1009.29 1008.44 1007.61 1006.91 1006.43 1006.17 1006.14 1006.25 1006.42 1006.58 1006.67 1006.68 1006.65 1006.65 1006.75 1007.04 1007.58 1008.36 1009.35 1010.46 1011.61 1012.68 1013.60 1014.32 1014.84 1015.20 1015.46 1015.68 1015.92 1016.23 1016.61 1017.04 1017.47 1017.88 1018.21 1018.46 1018.62 1018.73 1018.81 1018.91 1019.06
1008.23 1009.05 1009.90 1010.65 1011.14 1011.29 1011.05 1010.43 1009.53 1008.48 1007.43 1006.53 1005.86 1005.48 1005.36 1005.43 1005.61 1005.79 1005.92 1005.97 1005.97 1005.99 1006.11 1006.41 1006.96 1007.76 1008.78 1009.94 1011.13 1012.26 1013.25 1014.04 1014.62 1015.03 1015.33 1015.58 1015.85 1016.17 1016.56 1017.01 1017.46 1017.88 1018.23 1018.48 1018.65 1018.75 1018.83 1018.91 1019.05
1008.04 1009.07 1010.12 1011.02 1011.61 1011.77 1011.48 1010.75 1009.69 1008.45 1007.21 1006.13 1005.33 1004.84 1004.66 1004.72 1004.91 1005.13 1005.30 1005.40 1005.44 1005.48 1005.61 1005.91 1006.44 1007.22 1008.22 1009.38 1010.59 1011.75 1012.78 1013.62 1014.27 1014.73 1015.08 1015.38 1015.69 1016.04 1016.46 1016.93 1017.40 1017.85 1018.22 1018.49 1018.68 1018.79 1018.87 1018.95 1019.07
1007.90 1009.10 1010.29 1011.29 1011.92 1012.09 1011.74 1010.91 1009.72 1008.34 1006.96 1005.76 1004.86 1004.32 1004.11 1004.17 1004.40 1004.67 1004.90 1005.05 1005.12 1005.18 1005.30 1005.56 1006.05 1006.77 1007.72 1008.83 1010.02 1011.18 1012.23 1013.12 1013.81 1014.34 1014.76 1015.12 1015.47 1015.87 1016.32 1016.82 1017.32 1017.79 1018.19 1018.49 1018.70 1018.83 1018.91 1018.99 1019.10
1007.77 1009.06 1010.32 1011.35 1012.00 1012.14 1011.74 1010.84 1009.57 1008.11 1006.67 1005.42 1004.49 1003.94 1003.74 1003.84 1004.11 1004.44 1004.72 1004.92 1005.02 1005.09 1005.19 1005.41 1005.82 1006.47 1007.34 1008.37 1009.50 1010.63 1011.67 1012.58 1013.32 1013.92 1014.40 1014.82 1015.24 1015.68 1016.17 1016.70 1017.23 1017.72 1018.14 1018.47 1018.70 1018.85 1018.94 1019.02 1019.11
1007.59 1008.88 1010.12 1011.13 1011.74 1011.84 1011.40 1010.47 1009.19 1007.74 1006.31 1005.09 1004.19 1003.68 1003.54 1003.69 1004.02 1004.41 1004.75 1004.99 1005.12 1005.19 1005.27 1005.45 1005.79 1006.35 1007.12 1008.06 1009.10 1010.17 1011.20 1012.11 1012.88 1013.52 1014.07 1014.55 1015.03 1015.52 1016.04 1016.59 1017.14 1017.64 1018.08 1018.42 1018.67 1018.83 1018.93 1019.00 1019.08
1007.32 1008.51 1009.65 1010.57 1011.09 1011.14 1010.68 1009.78 1008.55 1007.17 1005.84 1004.72 1003.93 1003.51 1003.45 1003.67 1004.07 1004.51 1004.90 1005.19 1005.36 1005.44 1005.52 1005.66 1005.94 1006.42 1007.09 1007.94 1008.89 1009.89 1010.87 1011.77 1012.55 1013.23 1013.82 1014.35 1014.87 1015.40 1015.95 1016.51 1017.06 1017.57 1018.00 1018.35 1018.60 1018.76 1018.86 1018.94 1019.01
1006.93 1007.95 1008.92 1009.68 1010.09 1010.08 1009.62 1008.77 1007.65 1006.42 1005.25 1004.30 1003.65 1003.36 1003.41 1003.71 1004.16 1004.66 1005.09 1005.42 1005.63 1005.75 1005.84 1005.97 1006.23 1006.65 1007.25 1008.00 1008.87 1009.80 1010.72 1011.58 1012.35 1013.04 1013.66 1014.23 1014.78 1015.33 1015.89 1016.45 1016.99 1017.48 1017.90 1018.24 1018.49 1018.65 1018.76 1018.83 1018.90
Thickness
5819 5817 5813 5802 5782 5763 5762 5775 5787 5789 5792 5801 5803 5797 5788 5781 5773 5770 5787 5795 5793 5787 5783 5780 5777 5774 5772 5771 5769 5768 5768 5767 5767 5766 5765 5765 5764 5763 5762 5762 5760 5759 5758 5757 5756 5755 5753 5752 5751
5818 5814 5805 5791 5767 5752 5762 5780 5785 5792 5800 5804 5803 5798 5789 5784 5788 5787 5789 5792 5792 5787 5783 5779 5776 5773 5771 5769 5768 5767 5766 5765 5765 5764 5763 5763 5762 5761 5760 5759 5758 5757 5756 5755 5754 5753 5751 5750 5749
5817 5812 5793 5776 5763 5757 5770 5787 5791 5800 5807 5804 5796 5796 5789 5784 5788 5789 5793 5793 5790 5785 5782 5778 5775 5772 5770 5768 5767 5765 5764 5763 5763 5762 5761 5761 5760 5759 5758 5757 5756 5755 5754 5753 5752 5751 5749 5748 5746
5811 5798 5785 5768 5764 5773 5784 5793 5799 5799 5803 5804 5796 5787 5789 5796 5795 5794 5794 5791 5786 5782 5780 5777 5774 5771 5769 5767 5765 5764 5763 5762 5761 5760 5759 5758 5758 5757 5756 5755 5754 5753 5752 5751 5749 5748 5747 5746 5744
5804 5786 5769 5757 5764 5780 5794 5802 5802 5798 5798 5800 5795 5783 5781 5793 5798 5795 5791 5788 5783 5779 5777 5775 5772 5770 5767 5766 5764 5763 5761 5760 5759 5758 5757 5756 5755 5754 5753 5753 5752 5751 5749 5748 5747 5746 5745 5744 5743
5787 5775 5755 5752 5765 5784 5797 5805 5804 5799 5798 5799 5794 5781 5778 5789 5792 5790 5788 5784 5781 5778 5775 5772 5770 5767 5766 5764 5762 5761 5759 5758 5757 5756 5755 5754 5753 5752 5751 5750 5749 5748 5747 5746 5744 5743 5743 5742 5741
5780 5766 5758 5762 5766 5779 5798 5807 5802 5798 5795 5796 5797 5779 5777 5783 5788 5788 5785 5781 5777 5775 5772 5770 5768 5766 5763 5762 5760 5759 5757 5756 5755 5754 5753 5752 5751 5750 5749 5748 5747 5746 5745 5743 5742 5741 5740 5740 5739
5788 5769 5762 5761 5767 5778 5799 5805 5806 5800 5796 5805 5800 5782 5776 5784 5787 5784 5780 5776 5773 5771 5769 5767 5765 5763 5761 5760 5758 5757 5756 5754 5753 5752 5751 5750 5749 5748 5747 5745 5745 5744 5743 5742 5740 5739 5738 5737 5737
5791 5761 5753 5763 5771 5782 5798 5797 5802 5808 5802 5802 5802 5796 5794 5791 5786 5779 5773 5770 5768 5767 5766 5764 5762 5761 5759 5758 5756 5755 5754 5753 5751 5750 5749 5748 5747 5746 5744 5743 5743 5742 5741 5740 5739 5737 5736 5736 5735
5779 5756 5764 5780 5787 5790 5795 5796 5798 5797 5793 5792 5793 5795 5795 5789 5782 5776 5772 5768 5766 5764 5763 5763 5760 5759 5757 5756 5754 5753 5752 5750 5749 5748 5747 5746 5745 5744 5742 5742 5741 5740 5739 5738 5737 5736 5735 5734 5733
5778 5769 5780 5789 5795 5796 5793 5795 5801 5793 5785 5793 5792 5790 5789 5785 5779 5775 5773 5771 5768 5765 5763 5761 5759 5757 5755 5754 5752 5750 5749 5748 5747 5746 5745 5744 5742 5741 5740 5739 5739 5738 5737 5736 5735 5734 5733 5732 5731
5778 5782 5788 5793 5799 5797 5795 5797 5796 5796 5801 5810 5805 5798 5791 5785 5780 5777 5773 5770 5767 5764 5762 5759 5758 5755 5753 5752 5750 5748 5746 5745 5744 5744 5743 5742 5740 5739 5738 5737 5736 5736 5735 5734 5734 5733 5732 5730 5729
5779 5784 5792 5796 5797 5798 5798 5795 5796 5799 5809 5811 5803 5795 5789 5786 5782 5778 5775 5771 5767 5763 5761 5758 5756 5753 5751 5749 5748 5746 5744 5743 5742 5741 5740 5740 5739 5737 5736 5735 5734 5734 5733 5733 5732 5731 5731 5729 5728
5784 5785 5789 5793 5795 5799 5795 5794 5794 5800 5807 5803 5796 5790 5788 5785 5781 5776 5772 5769 5766 5764 5761 5759 5756 5753 5750 5748 5746 5744 5743 5741 5740 5739 5738 5738 5737 5736 5735 5734 5733 5733 5732 5731 5731 5730 5729 5728 5727
5786 5780 5780 5787 5792 5796 5792 5782 5790 5802 5802 5796 5792 5788 5786 5783 5779 5776 5774 5770 5767 5764 5762 5759 5756 5752 5749 5747 5745 5743 5741 5739 5738 5737 5737 5736 5736 5735 5734 5733 5732 5731 5731 5731 5730 5729 5728 5727 5727
5776 5766 5761 5778 5789 5792 5783 5770 5792 5800 5796 5790 5789 5787 5783 5781 5779 5777 5774 5770 5766 5763 5761 5758 5757 5752 5747 5745 5743 5741 5739 5738 5737 5736 5735 5735 5734 5734 5733 5732 5731 5730 5730 5730 5729 5728 5726 5725 5725
5753 5747 5754 5768 5785 5785 5778 5773 5790 5796 5793 5786 5786 5785 5783 5779 5776 5776 5774 5770 5766 5763 5760 5757 5756 5752 5748 5744 5742 5740 5738 5736 5735 5734 5734 5734 5733 5733 5732 5731 5730 5729 5729 5729 5728 5726 5725 5723 5722
5739 5746 5752 5758 5775 5777 5772 5773 5785 5790 5790 5786 5785 5783 5780 5778 5778 5777 5773 5770 5766 5762 5760 5756 5754 5751 5748 5743 5739 5737 5735 5734 5734 5733 5733 5733 5732 5732 5731 5730 5729 5728 5728 5727 5726 5725 5724 5722 5721
5750 5749 5748 5758 5774 5771 5768 5770 5778 5784 5785 5783 5781 5780 5779 5779 5779 5776 5773 5770 5766 5762 5758 5755 5751 5750 5747 5742 5738 5734 5732 5733 5732 5732 5732 5732 5731 5731 5730 5729 5728 5727 5727 5726 5725 5723 5722 5720 5719
5747 5743 5745 5756 5769 5769 5764 5766 5776 5782 5784 5787 5784 5781 5780 5777 5774 5772 5771 5768 5765 5762 5759 5755 5752 5749 5747 5744 5740 5736 5734 5732 5732 5732 5731 5731 5730 5730 5730 5729 5728 5727 5726 5724 5724 5723 5720 5719 5718
5740 5740 5744 5746 5756 5763 5759 5755 5765 5776 5783 5784 5784 5782 5781 5778 5775 5772 5770 5768 5765 5762 5759 5757 5754 5750 5747 5744 5739 5734 5730 5729 5728 5728 5729 5729 5729 5729 5729 5728 5728 5727 5726 5724 5723 5723 5720 5717 5716
5732 5750 5750 5748 5738 5730 5745 5727 5754 5764 5769 5775 5778 5779 5779 5779 5777 5773 5770 5766 5765 5763 5760 5757 5754 5749 5746 5743 5739 5735 5731 5728 5728 5729 5728 5728 5728 5728 5728 5728 5727 5726 5725 5724 5724 5723 5722 5719 5715
5743 5754 5750 5745 5734 5725 5732 5725 5738 5757 5758 5769 5777 5781 5782 5781 5779 5774 5771 5769 5767 5763 5759 5755 5752 5748 5745 5743 5740 5736 5733 5731 5729 5728 5727 5727 5727 5727 5727 5727 5726 5725 5725 5724 5723 5722 5721 5720 5718
5752 5743 5733 5721 5716 5706 5724 5720 5729 5746 5762 5773 5779 5782 5783 5783 5780 5776 5773 5769 5764 5760 5756 5753 5750 5746 5744 5742 5740 5737 5734 5731 5728 5727 5725 5724 5724 5725 5725 5725 5725 5725 5724 5724 5723 5722 5721 5720 5719
5739 5715 5695 5696 5688 5697 5723 5722 5731 5763 5774 5779 5781 5783 5785 5784 5780 5775 5770 5766 5763 5759 5755 5751 5748 5745 5744 5742 5739 5737 5735 5733 5730 5729 5726 5724 5723 5723 5724 5724 5724 5723 5723 5723 5722 5721 5721 5720 5719
5728 5718 5694 5687 5687 5699 5718 5718 5743 5769 5777 5781 5783 5784 5783 5780 5778 5774 5771 5767 5764 5760 5757 5752 5748 5745 5743 5741 5739 5737 5735 5733 5732 5731 5729 5726 5725 5725 5724 5724 5723 5723 5723 5722 5721 5720 5720 5719 5719
5721 5715 5723 5701 5699 5698 5707 5725 5748 5767 5770 5774 5777 5778 5778 5777 5776 5773 5770 5766 5763 5760 5757 5754 5750 5746 5743 5741 5739 5736 5735 5734 5732 5731 5729 5728 5727 5725 5724 5723 5722 5722 5722 5721 5720 5719 5719 5718 5717
5737 5724 5705 5695 5684 5687 5707 5718 5728 5752 5760 5767 5770 5773 5775 5776 5774 5772 5769 5766 5763 5760 5757 5754 5751 5748 5745 5742 5739 5738 5736 5735 5733 5731 5728 5727 5727 5726 5724 5722 5722 5721 5720 5719 5719 5718 5717 5716 5716
5721 5717 5709 5698 5700 5689 5691 5711 5749 5754 5761 5763 5767 5771 5773 5773 5773 5771 5769 5766 5762 5759 5756 5752 5750 5747 5744 5742 5739 5738 5736 5734 5732 5730 5729 5728 5726 5725 5723 5723 5721 5720 5719 5718 5717 5716 5715 5715 5714
5733 5723 5712 5702 5696 5697 5697 5714 5759 5760 5762 5764 5766 5768 5770 5771 5771 5770 5767 5764 5760 5756 5754 5751 5749 5746 5744 5742 5739 5737 5736 5734 5731 5730 5729 5727 5726 5725 5724 5722 5720 5719 5718 5717 5716 5715 5714 5714 5712